Preview of NWS' New Version of Forecast
This preview is not operational and should not be used for support decisions.

Regional Weather Roundup (RWR)

Issued by National Weather Service (NWS)

                            
000
ASUS45 KBOI 251710
RWRID 

IDAHO REGIONAL WEATHER ROUNDUP
NATIONAL WEATHER SERVICE BOISE ID
1100 AM MDT THU APR 25 2019

NOTE: "FAIR" INDICATES FEW OR NO CLOUDS BELOW 12000 FEET
WITH NO SIGNIFICANT WEATHER AND/OR OBSTRUCTIONS TO VISIBILITY

IDZ012-014-251800-
SOUTHWEST IDAHO

  
CITY           SKY/WX    TMP DP  RH WIND       PRES   REMARKS
BOISE          SUNNY     59  32  36 CALM      30.15F                  
CALDWELL       SUNNY     56  37  49 CALM      30.16F                  
MOUNTAIN HOME  SUNNY     56  32  40 CALM      30.16F                  
$$

IDZ016-017-251800-
SOUTHCENTRAL IDAHO

  
CITY           SKY/WX    TMP DP  RH WIND       PRES   REMARKS
BURLEY         SUNNY     58  29  33 VRB3      30.16F                  
JEROME         SUNNY     53  30  41 VRB5      30.18S                  
TWIN FALLS     SUNNY     60  31  33 NW8       30.17S                  
$$

IDZ019>023-251800-
SOUTHEAST IDAHO

  
CITY           SKY/WX    TMP DP  RH WIND       PRES   REMARKS
IDAHO FALLS    SUNNY     52  32  46 VRB3      30.20F                  
POCATELLO      SUNNY     56  32  40 SW8       30.19F                  
REXBURG        SUNNY     53  29  39 VRB3      30.19F                  
$$

IDZ006-010-011-018-031-032-251800-
CENTRAL IDAHO MOUNTAINS

  
CITY           SKY/WX    TMP DP  RH WIND       PRES   REMARKS
MCCALL         SUNNY     44  26  49 CALM      30.16F                  
HAILEY         MOSUNNY   54  21  28 CALM      30.20F                  
STANLEY          N/A     40  22  48 N5        30.22F                  
SALMON         SUNNY     48  22  35 CALM      30.21F                  
CHALLIS        SUNNY     51  24  34 VRB3      30.19F                  
$$

IDZ002-004-006-007-026-251800-
NORTHERN IDAHO

  
CITY           SKY/WX    TMP DP  RH WIND       PRES   REMARKS
LEWISTON       SUNNY     55  38  52 NE3       30.19F                  
LOWELL           N/A     53  36  52 CALM      30.21F                  
COEUR D'ALENE  SUNNY     53  29  39 N9        30.21F                  
MULLAN PASS    SUNNY     43  16  33 VRB3      30.19F                  
$$